Regional Weather Roundup
Issued by NWS Kansas City/Pleasant Hill, MO

Home | Current Version | Previous Version | Graphics & Text | Print | Product List | Glossary Off
Versions: 1 2 3 4 5 6 7 8 9 10 11 12 13 14 15 16 17 18 19 20 21 22 23 24 25 26 27 28 29 30 31 32 33 34 35 36 37 38 39 40 41 42 43 44 45 46 47 48 49 50

000
ASUS43 KEAX 281204
RWREAX

WEATHER ROUNDUP FOR EASTERN KANSAS AND NORTHWEST MISSOURI
NATIONAL WEATHER SERVICE KANSAS CITY/PLEASANT HILL MO
600 AM CST WED JAN 28 2015

KSZ040-057-103>105-MOZ028-029-037-043-281300-
...KANSAS CITY METROPOLITAN AREA...

CITY           SKY/WX    TMP DP  RH WIND       PRES   REMARKS
K.C. INTL      PTCLDY    40  30  67 SE12      29.94F WCI  33
6HR MIN TEMP:  39; 6HR MAX TEMP:  42;

K.C. DOWNTOWN  PTCLDY    43  29  57 CALM      29.96F
6HR MIN TEMP:  39; 6HR MAX TEMP:  47;

LEES SUMMIT    CLEAR     41  30  65 S12G20    29.97S WCI  34
6HR MIN TEMP:  41; 6HR MAX TEMP:  42;

OLATHE - IXD   CLEAR     42  30  62 S14       29.95S WCI  35
6HR MIN TEMP:  41; 6HR MAX TEMP:  44;

OLATHE - OJC   CLEAR     39  30  70 S10       29.95S WCI  32
6HR MIN TEMP:  39; 6HR MAX TEMP:  43;

LAWRENCE       CLEAR     35  28  75 E8        29.94S WCI  29

$$

MOZ001>008-011>017-020>025-030>033-038>040-044>046-053-054-281300-
...NORTHERN AND CENTRAL MISSOURI...

CITY           SKY/WX    TMP DP  RH WIND       PRES   REMARKS
ST. JOSEPH     PTCLDY    36  29  75 SE8       29.95S WCI  30
6HR MIN TEMP:  36; 6HR MAX TEMP:  41;

MOSBY          MOSUNNY   37  32  81 SE8       29.97F WCI  31
WARRENSBURG    CLEAR     41  32  70 SE14      29.99F WCI  33
WHITEMAN AFB   CLEAR     40  32  71 S13       30.00S WCI  33
6HR MIN TEMP:  37; 6HR MAX TEMP:  42;

CLINTON        CLEAR     43  34  70 SE8       30.02S
SEDALIA        CLEAR     39  31  72 SE15      30.03F WCI  31
6HR MIN TEMP:  36; 6HR MAX TEMP:  39;

WARSAW         NOT AVBL
MARSHALL       CLEAR     37  32  81 SE10      30.04F WCI  30
CHILLICOTHE      N/A     33  29  85 SE9       30.03F WCI  25
6HR MIN TEMP:  33; 6HR MAX TEMP:  35;

MOBERLY        CLEAR     32  27  80 SE12      30.08F WCI  23
KIRKSVILLE     PTCLDY    28  27  96 E10       30.09F FOG     WCI  19
6HR MIN TEMP:  28; 6HR MAX TEMP:  29;


$$

MOZ041-047>049-056>058-063>065-088>090-097-281300-
...EASTERN AND SOUTHERN MISSOURI...

CITY           SKY/WX    TMP DP  RH WIND       PRES   REMARKS
ST. LOUIS INTL PTCLDY    31  26  82 SE12      30.23S WCI  22
6HR MIN TEMP:  28; 6HR MAX TEMP:  31;

SPIRIT OF STL  CLEAR     29  26  89 SE5       30.21F WCI  24
COLUMBIA       CLEAR     31  28  89 SE14      30.09F WCI  21
JEFFERSON CITY CLEAR     32  28  85 E12       30.13S WCI  23
MEXICO         CLEAR     32  32 100 SE14      30.12F WCI  22
HANNIBAL       CLEAR     30  27  86 SE10      30.16S WCI  21
ROLLA          CLEAR     32  27  81 SE16      30.11F WCI  21
LEBANON        CLEAR     37  32  81 SE15G24   30.09F WCI  28
OSAGE BEACH    CLEAR     37  30  75 SE14      30.09S WCI  29
SPRINGFIELD    CLEAR     39  33  79 S15G30    30.06S WCI  31
NEVADA         CLEAR     43  32  65 S15       30.01S
JOPLIN         CLEAR     49  31  49 S12       30.02S
WEST PLAINS    CLEAR     32  28  85 SE7       30.19S WCI  26

$$

IAZ060-094-KSZ022-034>040-054-083-096-NEZ052-066-093-281300-
...KANSAS...SOUTHEAST NEBRASKA AND IOWA...

CITY           SKY/WX    TMP DP  RH WIND       PRES   REMARKS
TOPEKA         CLEAR     35  29  78 E5        29.93S WCI  31
6HR MIN TEMP:  35; 6HR MAX TEMP:  43;

MANHATTAN      CLEAR     32  30  92 CALM      29.89S
EMPORIA        CLEAR     40  34  79 S18       29.91S WCI  31
CHANUTE        CLEAR     47  36  65 S14       29.98S
WICHITA        CLEAR     39  32  76 S8        29.91F WCI  33
OMAHA          PTCLDY    34  29  82 SE12      29.91S WCI  25
LINCOLN        CLEAR     33  28  81 E5        29.87F WCI  29
FALLS CITY     CLEAR     35  28  75 SE9       29.90F WCI  28
LAMONI         CLEAR     29  27  92 E8        29.98F WCI  21
DES MOINES     CLOUDY    31  27  85 SE12G21   30.03F FOG     WCI  22

$$



USA.gov is the U.S. government's official web portal to all federal, state and local government web resources and services.